Satellite-Ground Cal/Val Site Overpasses Predictions

Prediction of Satellite NPP Overpassing Cal/Val Site: Antarctic Dome C

Ground Cal/Val Site Location: Latitude: -75.10, Longitude: 123.35; Satellite-Ground Site NADIR distance within 100 km.

Table of predicted overpasses for the next 14.0 days since TLE Epoch: 3/13/2021
Interval Starting Time Ending Time Minimum Distance Time Minimum Distance (km)
1 03/13/2021 14:54:25 03/13/2021 14:54:54 03/13/2021 14:54:39 21.14
2 03/14/2021 14:35:43 03/14/2021 14:35:58 03/14/2021 14:35:51 86.07
3 03/15/2021 07:37:15 03/15/2021 07:37:42 03/15/2021 07:37:28 35.39
4 03/16/2021 07:18:29 03/16/2021 07:18:48 03/16/2021 07:18:39 74.77
5 03/18/2021 15:00:43 03/18/2021 15:01:07 03/18/2021 15:00:55 57.88
6 03/19/2021 14:41:52 03/19/2021 14:42:17 03/19/2021 14:42:05 51.25
7 03/20/2021 07:43:33 03/20/2021 07:43:54 03/20/2021 07:43:44 70.43
8 03/21/2021 07:24:41 03/21/2021 07:25:08 03/21/2021 07:24:55 37.61
9 03/23/2021 15:07:07 03/23/2021 15:07:15 03/23/2021 15:07:11 95.47
10 03/24/2021 14:48:06 03/24/2021 14:48:35 03/24/2021 14:48:20 15.74
